Malaysia Virtual Airlines Airport Information Service

Perth Airport

ICAO: YPPH Country: Australia
Latitude: -31.9403 Longitude: 115.967
Latest Arrival : MH125 (WMKK-YPPH) Latest Departure : MH120 (YPPH-WBKK)


WX CaptureLIVE
Data provided by noaa.gov | Fetched at 05:20:06

METAR : YPPH 290500Z 25014KT CAVOK 25/13 Q1013

TAF : YPPH 290214Z 2903/3006 23012KT CAVOK FM290600 22018KT CAVOK FM291200 20010KT CAVOK FM291800 15008KT 9999 SCT030 FM300200 24007KT CAVOK


Runway Data for YPPH
Data provided by openaviationdata.com

Runway ID Mag Var Hdg Length Elevation Surface ILS Freq ILS Id ILS Slope
3 -2 15° 11326 ft 67 ft Asphalt 110.1 IPN 3
6 -2 60° 7098 ft 67 ft Asphalt -- -- --
21 -2 195° 11326 ft 67 ft Asphalt 109.5 IGD 3
24 -2 240° 7098 ft 67 ft Asphalt 109.9 IPH 3

Perth Airport, Australia
Use only for reference purposes



Not for navigational purposes.